Location: ?????????
(53.2086°N, 54.0693°E)
Time: 15:07:52
(UTC+00:00)

Cosmos 2333 - Pass Details

Date: 08 December 2019
Orbit: 829 x 866 km, 70.9° (Epoch: 27 January)

Event Time Altitude Azimuth Distance (km) Brightness Sun altitude
Rises 13:57:09 0° 218° (SW) 3,409 8.3 -15.4°
Reaches altitude 10° 13:59:35 10° 220° (SW) 2,482 7.5 -15.7°
Maximum altitude 14:05:18 71° 305° (NW) 912 4.5 -16.5°
Enters shadow 14:10:08 15° 28° (NNE) 2,166 5.9 -17.2°
